Regional Weather Roundup
Issued by NWS

Home | Current Version | Previous Version | Graphics & Text | Print | Product List | Glossary Off
Versions: 1 2 3 4 5 6 7 8 9 10 11 12 13 14 15 16 17 18 19 20 21 22 23 24 25 26 27 28 29 30 31 32 33 34 35 36 37 38 39 40 41 42 43 44 45 46 47 48 49 50

000
ASUS44 KFWD 191015
RWRTX
NORTH TEXAS HOURLY WEATHER ROUNDUP
NATIONAL WEATHER SERVICE FORT WORTH TX
400 AM CST FRI DEC 19 2014

NOTE: "FAIR" INDICATES FEW OR NO CLOUDS BELOW 12,000 FEET WITH NO
SIGNIFICANT WEATHER AND/OR OBSTRUCTIONS TO VISIBILITY.

TXZ118-119-191100-
DALLAS/FORT WORTH METROPLEX

CITY           SKY/WX    TMP DP  RH WIND       PRES   REMARKS
DFW AIRPORT    CLOUDY    46  43  89 CALM      30.18R
DALLAS LOVE    CLOUDY    46  43  89 NE6       30.16R
FTW MEACHAM    LGT RAIN  46  43  89 N7        30.17R FOG
DAL-EXECUTIVE  LGT RAIN  47  43  86 NE5       30.14R
FTW-ALLIANCE   CLOUDY    45  43  93 N7        30.18R
FTW-SPINKS     CLOUDY    47  44  91 N8        30.17R FOG
ARLINGTON      CLOUDY    48  42  80 N7        30.17R
GRAND PRAIRIE  CLOUDY    46  46  99 CALM      30.16R
ADDISON        CLOUDY    46  46 100 NE5       30.16R
MESQUITE       CLOUDY    45  43  93 E3        30.17R
LANCASTER      LGT RAIN  46  42  88 E6        30.15R
$$

TXZ091>094-102>105-117-120-121-131>134-191100-
NORTH CENTRAL TEXAS

CITY           SKY/WX    TMP DP  RH WIND       PRES   REMARKS
SHRMAN/DENISON FOG       44  44 100 CALM      30.16F VSB 1/2
GAINESVILLE    CLOUDY    43  43  99 N5        30.19R FOG
BOWIE          CLOUDY    42  42  99 CALM      30.17R FOG
BRIDGEPORT     CLOUDY    44  44 100 NE9       30.16F WCI  39
DECATUR        LGT RAIN  43  43  99 NE7       30.15S WCI  39
DENTON         CLOUDY    45  43  93 NW8       30.19R
MCKINNEY       CLOUDY    45  43  93 NE7       30.12F
GREENVILLE     CLOUDY    45  43  93 NE6       30.13F FOG
ROCKWALL       CLOUDY    45  44  97 N10       30.11F FOG     WCI  40
TERRELL        CLOUDY    47  44  90 NE9       30.12F
WAXAHACHIE     LGT RAIN  45  45 100 NE7       30.13R
CLEBURNE       CLOUDY    46  46 100 NW7       30.18R
GRANBURY       HVY RAIN  47  44  88 N7        30.18S
$$

TXZ083>090-098>101-113>116-127>130-139>142-154-155-191100-
WESTERN NORTH TEXAS

CITY           SKY/WX    TMP DP  RH WIND       PRES   REMARKS
WICHITA FALLS  CLOUDY    43  41  93 E12       30.15F WCI  37
WF-KICKAPOO    CLOUDY    44  44 100 E7        30.17R WCI  40
VERNON         CLOUDY    43  38  82 N8        30.18R WCI  38
ABILENE        CLOUDY    42  40  92 N8        30.15R WCI  37
ABILENE-DYESS  CLOUDY    43  37  81 NE7       30.15R WCI  39
BRECKENRIDGE   DRIZZLE   46  46  98 NE9       30.12F
GRAHAM         DRIZZLE   44  44 100 CALM      30.17R
MINERAL WELLS  LGT RAIN  44  43  96 SW5       30.20R FOG
STEPHENVILLE   CLOUDY    45  42  89 NE6       30.18R
COMANCHE       CLOUDY    45  45 100 E9G17     30.10F
BROWNWOOD      LGT RAIN  46  45  93 N9        30.14R
COLEMAN        LGT RAIN  46  45  99 NE8       30.12F
$$

TXZ143>147-156>162-174-175-191100-
CENTRAL TEXAS

CITY           SKY/WX    TMP DP  RH WIND       PRES   REMARKS
WACO           CLOUDY    47  44  90 NE12      30.09F
WACO-MCGREGOR  CLOUDY    46  41  81 N8        30.11F
HILLSBORO      LGT RAIN  46  44  90 NE12      30.12R
CORSICANA      LGT RAIN  48  45  89 N10       30.13F FOG
MEXIA          RAIN      47  46  97 N7        30.09F
HEARNE         HVY RAIN  50  49  97 N6        30.08R
CAMERON        LGT RAIN  49  48  97 N10       30.09R
TEMPLE         CLOUDY    46  43  87 N10       30.07F
KILLEEN        CLOUDY    46  46 100 N8        30.08F FOG
KILLEEN-SKYLRK CLOUDY    46  41  81 N8        30.06F
FORT HOOD      CLOUDY    46  46 100 NE9       30.07F FOG
GATESVILLE     CLOUDY    46  46 100 N6        30.13R
HAMILTON       LGT RAIN  46  46 100 N13       30.15R WCI  40
LAMPASAS       CLOUDY    45  44  95 N8        30.07F FOG
$$

TXZ095>097-106>112-122>126-135>138-148>153-164>167-191100-
EAST TEXAS

CITY           SKY/WX    TMP DP  RH WIND       PRES   REMARKS
PARIS          CLOUDY    45  43  93 NE7       30.16F
SULPHUR SPRNGS CLOUDY    46  45  95 NE6       30.16F FOG
MOUNT PLEASANT CLOUDY    46  45  97 NE6       30.16S
MINEOLA        CLOUDY    46  46 100 NE3       30.15S FOG
TYLER          CLOUDY    48  46  93 NE9       30.10F FOG
LONGVIEW       CLOUDY    49  47  93 NE6       30.11F FOG
MARSHALL       CLOUDY    51  48  91 NE5       30.14F
ATHENS         CLOUDY    46  45  93 NE7       30.10S FOG
PALESTINE      DRIZZLE   49  49  98 NE8       30.09F
JACKSONVILLE   FOG       49  48  99 NE9       30.10F VSB 3/4
HENDERSON      CLOUDY    49  48  99 NE7       30.11F
NACOGDOCHES    CLOUDY    50  46  87 NE6       30.10F
LUFKIN         RAIN      53  49  86 N7        30.06F FOG
$$

SUPPLEMENTAL OBSERVATIONS (CENTRAL)

CITY           SKY/WX    TMP DP  RH WIND       PRES   REMARKS
LAKE TEXOMA      N/A     43  41  93 NE6         N/A  WCI  39
PAT MAYSE LAKE   N/A     43  41  93 VRB2        N/A
GREENVILLE       N/A     45  41  87 NE9         N/A  WCI  40
CEDAR HILL       N/A     46  41  81 N1G13       N/A
ATHENS           N/A     46  45  93 NE3         N/A
LAKE LIMESTONE   N/A     48  45  87 N14         N/A
MCGREGOR         N/A     46  43  87 NE10        N/A
TEMPLE           N/A     48  45  87 N10G20      N/A
$$

SUPPLEMENTAL OBSERVATIONS (WEST)

CITY           SKY/WX    TMP DP  RH WIND       PRES   REMARKS
MILLERS CREEK    N/A     43  39  87 NE5         N/A
POSSUM KINGDOM   N/A     45  43  93 E3          N/A
GRANBURY         N/A     46  41  81 NE6G16      N/A
HAMBY            N/A     43  39  87 N3          N/A
IVIE RESERVOIR   N/A     46  41  81 NE7         N/A
COLORADO BEND    N/A     45  41  87 N6          N/A
$$

SUPPLEMENTAL OBSERVATIONS (EAST)

CITY           SKY/WX    TMP DP  RH WIND       PRES   REMARKS
CLARKSVILLE      N/A     45  43  93 NE3         N/A
TEXARKANA        N/A     45  41  87 NE3         N/A
LINDEN           N/A     46  43  87 NE2         N/A
CADDO LAKE       N/A     48  45  87 NE3         N/A
GILMER           N/A     46  43  87 NE3         N/A
HENDERSON        N/A     48  45  87 NE7         N/A
LUFKIN           N/A     50  46  87 MISG        N/A
N SABINE NF      N/A     50  45  81 MISG        N/A
S SABINE NF      N/A     52  48  87 NE3         N/A
$$

SUPPLEMENTAL OBSERVATIONS ARE A COLLECTION OF AUTOMATED INSTRUMENTS
THAT ARE MAINTAINED BY A VARIETY OF FEDERAL AND STATE AGENCIES.
CERTAIN ELEMENTS...SUCH AS HUMIDITY VALUES AND SUSTAINED WIND
SPEEDS...MAY BE APPROXIMATED.




USA.gov is the U.S. government's official web portal to all federal, state and local government web resources and services.